Location: Bennemühlen
(52.5740°N, 9.7135°E)
Time: 16:58:04
(UTC+00:00)

Cosmos 1151 Rocket - Pass Details

Date: 19 May 2025
Orbit: 586 x 607 km, 82.5° (Epoch: 17 June)

Event Time Altitude Azimuth Distance (km) Brightness Sun altitude
Exits shadow 22:19:32 24° 125° (SE) 1,250 4.2 -16.4°
Maximum altitude 22:21:00 30° 90° (E) 1,077 4.1 -16.4°
Drops below altitude 10° 22:24:42 10° 29° (NNE) 1,923 6.3 -16.5°
Sets 22:27:05 0° 19° (NNE) 2,829 7.5 -16.6°
